West Lindsay
DateTemperatureDew Point
07/12 - 09:45 PM81.5°69.5°
07/12 - 09:30 PM82.8°68.6°
07/12 - 09:15 PM84.2°68.5°
07/12 - 09:00 PM86.2°69.4°
07/12 - 08:45 PM88.7°67.6°
07/12 - 08:30 PM91.5°65.2°
07/12 - 08:15 PM94.0°64.7°
07/12 - 08:00 PM95.1°63.1°
07/12 - 07:45 PM95.9°64.3°
07/12 - 07:30 PM97.2°66.4°
07/12 - 07:15 PM99.2°67.1°
07/12 - 07:00 PM100.2°66.5°
07/12 - 06:45 PM100.3°66.0°
07/12 - 06:30 PM99.9°65.5°
07/12 - 06:15 PM99.6°66.6°
07/12 - 06:00 PM99.3°68.6°
07/12 - 05:45 PM100.4°69.6°
07/12 - 05:30 PM102.5°68.1°
07/12 - 05:15 PM104.6°64.6°
07/12 - 05:00 PM106.0°66.7°
07/12 - 04:45 PM106.4°69.3°
07/12 - 04:30 PM106.2°65.9°
07/12 - 04:15 PM106.0°65.7°
07/12 - 04:00 PM106.2°64.0°
07/12 - 03:45 PM105.5°63.5°
07/12 - 03:30 PM106.3°63.9°
07/12 - 03:15 PM105.6°62.2°
07/12 - 03:00 PM104.9°63.5°
07/12 - 02:45 PM103.5°63.4°
07/12 - 02:30 PM101.5°63.1°
07/12 - 02:15 PM98.7°64.4°
07/12 - 02:00 PM98.2°64.6°
07/12 - 01:45 PM97.7°64.0°
07/12 - 01:30 PM98.4°63.1°
07/12 - 01:15 PM98.4°63.1°
07/12 - 01:00 PM99.6°63.9°
07/12 - 12:45 PM98.7°62.1°
07/12 - 12:30 PM97.7°62.6°
07/12 - 12:15 PM96.4°62.0°
07/12 - 12:00 PM93.7°62.7°
07/12 - 11:45 AM91.4°64.1°
07/12 - 11:30 AM88.9°64.4°
07/12 - 11:15 AM88.7°66.2°
07/12 - 11:00 AM88.8°64.2°
07/12 - 10:45 AM88.5°65.7°
07/12 - 10:30 AM88.9°64.7°
07/12 - 10:15 AM89.5°64.5°
07/12 - 10:00 AM89.0°63.9°
07/12 - 09:45 AM87.8°63.1°
07/12 - 09:30 AM87.5°63.1°
07/12 - 09:15 AM86.4°62.5°
07/12 - 09:00 AM86.2°62.1°
07/12 - 08:45 AM84.9°61.3°
07/12 - 08:30 AM82.9°59.6°
07/12 - 08:15 AM80.9°58.6°
07/12 - 08:00 AM77.9°58.3°
07/12 - 07:45 AM74.8°58.6°
07/12 - 07:30 AM73.3°58.7°
07/12 - 07:15 AM72.2°59.4°
07/12 - 07:00 AM71.3°59.2°
07/12 - 06:45 AM70.7°59.4°
07/12 - 06:30 AM69.8°59.3°
07/12 - 06:15 AM69.1°60.6°
07/12 - 06:00 AM69.1°63.2°
07/12 - 05:45 AM69.3°64.3°
07/12 - 05:30 AM69.6°64.7°
07/12 - 05:15 AM70.0°65.2°
07/12 - 05:00 AM70.4°64.9°
07/12 - 04:45 AM70.7°64.5°
07/12 - 04:30 AM71.0°63.1°
07/12 - 04:15 AM71.1°61.7°
07/12 - 04:00 AM70.9°64.0°
07/12 - 03:45 AM71.0°65.3°
07/12 - 03:30 AM71.2°65.9°
07/12 - 03:15 AM71.4°66.5°
07/12 - 03:00 AM71.6°67.0°
07/12 - 02:45 AM71.7°67.7°
07/12 - 02:30 AM71.8°67.5°
07/12 - 02:15 AM72.2°67.1°
07/12 - 02:00 AM72.4°66.5°
07/12 - 01:45 AM72.9°65.7°
07/12 - 01:30 AM73.2°65.0°
07/12 - 01:15 AM73.6°65.6°
07/12 - 01:00 AM74.0°66.4°
07/12 - 12:45 AM74.4°65.9°
07/12 - 12:30 AM74.7°65.7°
07/12 - 12:15 AM75.0°65.1°
07/12 - 12:00 AM75.1°66.5°
07/11 - 11:45 PM75.3°68.0°
07/11 - 11:30 PM75.7°67.6°
07/11 - 11:15 PM76.3°68.8°
07/11 - 11:00 PM76.8°70.8°
07/11 - 10:45 PM77.3°71.8°
07/11 - 10:30 PM77.9°71.7°
07/11 - 10:15 PM78.5°71.1°
07/11 - 10:00 PM79.2°71.4°
07/11 - 09:45 PM79.9°72.4°
07/11 - 09:30 PM80.7°73.1°
07/11 - 09:15 PM81.7°72.9°
07/11 - 09:00 PM83.4°74.5°
07/11 - 08:45 PM85.5°75.5°
07/11 - 08:30 PM87.9°76.6°
07/11 - 08:15 PM90.7°76.9°
07/11 - 08:00 PM94.0°75.2°
07/11 - 07:45 PM97.6°67.9°
07/11 - 07:30 PM101.2°67.4°
07/11 - 07:15 PM103.5°67.5°
07/11 - 07:00 PM104.5°66.1°
07/11 - 06:45 PM105.2°64.9°
07/11 - 06:30 PM106.4°64.7°
07/11 - 06:15 PM107.2°64.0°
07/11 - 06:00 PM108.0°64.7°
07/11 - 05:45 PM108.6°65.0°
07/11 - 05:30 PM109.1°65.1°
07/11 - 05:15 PM109.1°65.0°
07/11 - 05:00 PM109.3°65.3°
07/11 - 04:45 PM109.6°64.7°
07/11 - 04:30 PM109.9°63.6°
07/11 - 04:15 PM110.1°62.4°
07/11 - 04:00 PM109.9°62.4°
07/11 - 03:45 PM109.3°63.0°
07/11 - 03:30 PM109.1°62.9°
07/11 - 03:15 PM108.8°63.9°
07/11 - 03:00 PM108.5°66.1°
07/11 - 02:45 PM108.5°65.4°
07/11 - 02:30 PM108.1°62.8°
07/11 - 02:15 PM107.4°62.5°
07/11 - 02:00 PM106.3°64.4°
07/11 - 01:45 PM105.5°65.7°
07/11 - 01:30 PM104.5°63.2°
07/11 - 01:15 PM103.8°65.9°
07/11 - 01:00 PM103.3°66.5°
07/11 - 12:45 PM102.4°64.9°
07/11 - 12:30 PM101.4°65.5°
07/11 - 12:15 PM100.6°66.2°
07/11 - 12:00 PM99.6°65.9°
07/11 - 11:45 AM98.6°66.3°
07/11 - 11:30 AM97.8°67.4°
07/11 - 11:15 AM96.7°67.5°
07/11 - 11:00 AM94.9°67.5°
07/11 - 10:45 AM93.6°69.3°
07/11 - 10:30 AM93.2°70.4°
07/11 - 10:15 AM92.3°69.8°
07/11 - 10:00 AM91.4°69.8°
07/11 - 09:45 AM90.4°69.3°
07/11 - 09:30 AM89.1°67.7°
07/11 - 09:15 AM87.7°66.9°
07/11 - 09:00 AM86.3°66.5°
07/11 - 08:45 AM84.6°66.2°
07/11 - 08:30 AM83.0°65.2°
07/11 - 08:15 AM80.9°64.9°
07/11 - 08:00 AM78.9°64.1°
07/11 - 07:45 AM76.5°63.4°
07/11 - 07:30 AM73.9°62.6°
07/11 - 07:15 AM71.2°60.0°
07/11 - 07:00 AM69.4°60.8°
07/11 - 06:45 AM68.0°62.7°
07/11 - 06:30 AM67.2°64.0°
07/11 - 06:15 AM66.8°64.1°
07/11 - 06:00 AM66.8°64.1°
07/11 - 05:45 AM67.0°64.2°
07/11 - 05:30 AM67.2°64.3°
07/11 - 05:15 AM67.2°64.0°
07/11 - 05:00 AM67.4°64.0°
07/11 - 04:45 AM67.5°64.2°
07/11 - 04:30 AM67.8°64.9°
07/11 - 04:15 AM68.1°65.3°
07/11 - 04:00 AM68.4°65.3°
07/11 - 03:45 AM68.6°65.4°
07/11 - 03:30 AM68.9°65.4°
07/11 - 03:15 AM69.1°65.5°
07/11 - 03:00 AM69.3°64.9°
07/11 - 02:45 AM69.6°64.9°
07/11 - 02:30 AM69.8°65.3°
07/11 - 02:15 AM70.1°65.5°
07/11 - 02:00 AM70.3°65.5°
07/11 - 01:45 AM70.5°65.0°
07/11 - 01:30 AM70.8°64.5°
07/11 - 01:15 AM71.2°64.4°
07/11 - 01:00 AM71.7°65.9°
07/11 - 12:45 AM72.1°66.9°
07/11 - 12:30 AM72.4°66.6°
07/11 - 12:15 AM72.7°66.4°
07/11 - 12:00 AM73.1°67.2°
07/10 - 11:45 PM73.3°68.0°
07/10 - 11:30 PM73.6°68.2°
07/10 - 11:15 PM74.0°68.5°
07/10 - 11:00 PM74.4°69.6°
07/10 - 10:45 PM74.9°70.1°
07/10 - 10:30 PM75.4°69.6°